W5UOK-13 Weather Reports


Display with metric or nautical units.
time (UTC)temp
F
wind
direction
speed
MPH
gust
MPH
rain 1hr
in
rain 24hr
in
rain mn
in
humidity
%
barometer
mb
20260505180055 78 214 7.0 17.0 0.00 0.00 0.00 79 1008.6
20260505174548 77 215 4.0 15.0 0.00 0.00 0.00 81 1008.7
20260505173055 78 214 3.0 16.0 0.00 0.00 0.00 80 1008.7
20260505171610 78 194 5.0 21.0 0.00 0.00 0.00 81 1008.5
20260505170051 77 194 5.0 17.0 0.00 0.00 0.00 82 1008.6
20260505164548 76 148 5.0 15.0 0.00 0.00 0.00 83 1008.8
20260505163048 75 186 6.0 19.0 0.00 0.00 0.00 84 1008.9
20260505161551 75 131 7.0 22.0 0.00 0.00 0.00 84 1008.7
20260505153053 75 171 6.0 13.0 0.00 0.00 0.00 83 1008.7
20260505151548 75 148 5.0 13.0 0.00 0.00 0.00 84 1008.6
20260505150111 74 223 5.0 19.0 0.00 0.00 0.00 85 1008.7
20260505124558 70 180 4.0 12.0 0.00 0.00 0.00 86 1008.1
20260505123100 70 196 3.0 10.0 0.00 0.00 0.00 86 1007.9
20260505121619 70 105 3.0 13.0 0.00 0.00 0.00 86 1007.9
20260505120050 70 167 3.0 12.0 0.00 0.00 0.00 86 1008.0
20260505114551 70 211 3.0 11.0 0.00 0.00 0.00 87 1007.7
20260505113054 70 130 4.0 15.0 0.00 0.00 0.00 86 1007.6
20260505111554 70 144 6.0 15.0 0.00 0.00 0.00 86 1007.3
20260505101547 70 125 6.0 17.0 0.00 0.00 0.00 86 1007.5
20260505100123 70 153 4.0 18.0 0.00 0.00 0.00 86 1007.3
20260505094548 70 163 5.0 21.0 0.00 0.00 0.00 86 1007.2
20260505093044 70 190 3.0 17.0 0.00 0.00 0.00 86 1007.3
20260505091612 70 193 4.0 15.0 0.00 0.00 0.00 86 1007.4
20260505090058 70 159 6.0 14.0 0.00 0.00 0.00 85 1007.7
20260505084549 69 207 5.0 21.0 0.00 0.00 0.00 85 1007.8
20260505083052 69 175 4.0 14.0 0.00 0.00 0.00 85 1008.3
20260505081550 69 184 4.0 16.0 0.00 0.00 0.00 86 1008.4
20260505080052 69 213 3.0 15.0 0.00 0.00 0.00 86 1008.5
20260505074550 69 144 3.0 13.0 0.00 0.00 0.00 85 1008.8
20260505073058 69 205 5.0 13.0 0.00 0.00 0.00 85 1009.0
20260505071549 69 186 4.0 22.0 0.00 0.00 0.00 84 1009.0
20260505070044 69 160 4.0 13.0 0.00 0.00 0.00 84 1009.2
20260505064553 69 292 4.0 15.0 0.00 0.00 0.00 83 1009.2
20260505063050 70 80 3.0 9.0 0.00 0.00 0.00 83 1009.6
20260505061548 70 100 4.0 17.0 0.00 0.00 0.00 82 1009.7
20260505060050 70 130 5.0 13.0 0.00 0.00 0.00 82 1009.7
20260505054616 70 192 3.0 12.0 0.00 0.00 0.00 81 1009.7
20260505053052 70 113 5.0 15.0 0.00 0.00 0.00 81 1009.5
20260505051549 71 163 4.0 13.0 0.00 0.00 0.00 81 1009.6
20260505041601 71 160 3.0 10.0 0.00 0.00 0.00 79 1009.5
20260505040052 72 171 4.0 14.0 0.00 0.00 0.00 79 1009.7
20260505034549 72 142 3.0 12.0 0.00 0.00 0.00 78 1009.5
20260505033047 72 158 3.0 11.0 0.00 0.00 0.00 77 1009.6
20260505031548 72 178 3.0 9.0 0.00 0.00 0.00 77 1009.6
20260505024551 73 162 3.0 11.0 0.00 0.00 0.00 75 1009.2
20260505023050 73 190 2.0 9.0 0.00 0.00 0.00 74 1009.4
20260505021553 73 140 3.0 9.0 0.00 0.00 0.00 74 1009.2
20260505020056 73 164 2.0 8.0 0.00 0.00 0.00 73 1009.2
20260505014551 73 144 1.0 7.0 0.00 0.00 0.00 73 1009.3
20260505013050 74 131 2.0 8.0 0.00 0.00 0.00 72 1009.0
20260505011550 74 141 2.0 7.0 0.00 0.00 0.00 71 1009.1
20260505010106 75 163 3.0 8.0 0.00 0.00 0.00 70 1008.9
20260505004551 76 128 2.0 8.0 0.00 0.00 0.00 69 1008.9
20260505003050 76 115 2.0 7.0 0.00 0.00 0.00 68 1009.0
20260505001546 77 147 3.0 11.0 0.00 0.00 0.00 66 1008.9
20260505000059 78 195 3.0 11.0 0.00 0.00 0.00 65 1009.3
20260504234552 79 202 4.0 16.0 0.00 0.00 0.00 63 1009.6
20260504233052 79 122 5.0 13.0 0.00 0.00 0.00 62 1009.5
20260504231552 79 162 4.0 15.0 0.00 0.00 0.00 61 1009.8
20260504230112 80 156 5.0 12.0 0.00 0.00 0.00 61 1009.7
20260504224558 80 118 4.0 14.0 0.00 0.00 0.00 61 1009.8
20260504223051 81 142 4.0 15.0 0.00 0.00 0.00 57 1010.1
20260504221550 82 205 4.0 18.0 0.00 0.00 0.00 56 1010.0
20260504220057 82 172 3.0 14.0 0.00 0.00 0.00 57 1010.1
20260504214550 82 186 7.0 20.0 0.00 0.00 0.00 56 1010.5
20260504213100 82 159 5.0 24.0 0.00 0.00 0.00 55 1010.7
20260504211544 82 186 5.0 17.0 0.00 0.00 0.00 54 1010.9
20260504210101 83 137 4.0 14.0 0.00 0.00 0.00 54 1011.3
20260504204550 83 197 7.0 19.0 0.00 0.00 0.00 52 1011.4
20260504203049 83 223 5.0 17.0 0.00 0.00 0.00 52 1011.8
20260504201559 83 273 6.0 15.0 0.00 0.00 0.00 54 1011.9
20260504200101 82 148 7.0 18.0 0.00 0.00 0.00 54 1012.3
20260504194545 82 115 5.0 15.0 0.00 0.00 0.00 54 1012.7
20260504193050 82 164 5.0 12.0 0.00 0.00 0.00 52 1012.7
20260504191605 82 92 6.0 16.0 0.00 0.00 0.00 52 1012.9
20260504190049 82 164 7.0 15.0 0.00 0.00 0.00 50 1013.1
20260504184549 82 128 4.0 15.0 0.00 0.00 0.00 49 1013.3
20260504183050 81 171 6.0 17.0 0.00 0.00 0.00 48 1013.5
20260504181553 81 153 3.0 14.0 0.00 0.00 0.00 50 1013.7